[[{"header":{"parameterUnit":"m.s-1","parameterCategory":1,"la1":30.2991,"la2":30.254,"lo1":-89.0895,"lo2":-89.0444,"dy":0.0017,"dx":0.0017,"nx":28,"ny":28,"refTime":"2025-11-20T09:00:00:Z","depth":0,"parameterNumber":2,"parameterNumberName":"U-component_of_WINDS"},"data":[0,0,0,0,0,0,0,0,0,0,0,0,0,0,0,0,0,0,0,0,0,0,0,0,0,0,0,0,0,0,0,0,0,0,0,0,0,0,0,0,0,0,0,0,0,0,0,0,0,0,0,0,0,0,0,0,0,0,-2.7655,-2.7655,0,-2.7657,-2.7657,-2.7657,-2.7618,-2.7616,-2.7615,-2.7614,-2.7616,-2.7617,-2.7618,0,0,0,0,0,0,0,0,0,0,0,0,0,-2.7618,-2.7618,-2.7655,-2.7655,-2.7655,-2.7657,-2.7657,-2.7657,-2.7618,-2.7616,-2.7615,-2.7614,-2.7616,-2.7617,-2.7618,0,0,0,0,0,0,0,0,0,0,0,0,0,-2.7628,-2.7619,-2.7655,-2.7636,-2.7634,-2.7657,-2.7657,-2.7657,-2.7618,-2.7616,-2.7615,-2.7613,-2.7615,-2.7617,-2.7618,-2.766,0,0,-2.7623,-2.7624,0,0,0,0,0,0,0,0,-2.7628,-2.763,-2.7639,-2.7637,-2.7635,-2.7635,-2.7645,-2.7658,-2.7618,-2.7624,-2.7614,-2.7613,-2.7624,-2.7625,-2.7628,-2.766,-2.766,-2.7623,-2.7624,-2.7625,-2.7625,0,0,0,0,0,0,0,-2.7627,-2.7629,-2.7656,-2.7639,-2.7637,-2.7627,-2.7627,-2.7647,-2.7633,-2.7623,-2.7621,-2.7621,-2.7623,-2.7627,-2.7628,-2.766,-2.7623,-2.7625,-2.7626,-2.7626,-2.7726,-2.7728,0,0,0,0,0,0,-2.7629,-2.7629,-2.7656,-2.7656,-2.7627,-2.7629,-2.7629,-2.7637,-2.7633,-2.763,-2.7623,-2.762,-2.7625,-2.7626,-2.7628,-2.7676,-2.7625,-2.7626,-2.7627,-2.7725,-2.7727,-2.7729,0,0,0,0,0,0,-2.7628,-2.7632,-2.7656,-2.7642,-2.7644,-2.7631,-2.7641,-2.7638,-2.7642,-2.7632,-2.7629,-2.763,-2.7624,-2.7626,-2.7652,-2.7675,-2.7627,-2.7629,-2.7723,-2.7725,-2.7728,-2.7772,0,0,0,0,0,0,-2.7627,-2.7632,-2.7647,-2.7642,-2.7645,-2.768,-2.7642,-2.7639,-2.7645,-2.7641,-2.7638,-2.7636,-2.7623,-2.765,-2.7654,-2.7677,-2.763,-2.772,-2.7724,-2.7727,-2.7769,-2.7776,-2.7783,0,0,0,0,0,-2.7626,-2.766,-2.7648,-2.7652,-2.7664,-2.7681,-2.7683,-2.7667,-2.7647,-2.7663,-2.7656,-2.7636,-2.7673,-2.7653,-2.7657,-2.7681,-2.7719,-2.7723,-2.7727,-2.7766,-2.7775,-2.7782,0,0,0,0,0,0,-2.7667,-2.7659,-2.7646,-2.7679,-2.7681,-2.7675,-2.7693,-2.7677,-2.7685,-2.7681,-2.7661,-2.7661,-2.7691,-2.7689,-2.7667,-2.7721,-2.7692,-2.7697,-2.7721,-2.7729,-2.7736,-2.7735,-2.7631,0,0,0,0,0,-2.768,-2.7695,-2.7687,-2.7717,-2.7719,-2.7706,-2.7713,-2.7701,-2.7703,-2.7703,-2.7699,-2.7701,-2.7713,-2.7721,-2.7732,-2.7769,-2.7768,-2.7787,-2.7794,-2.78,-2.7804,-2.7823,-2.7831,-2.7741,-2.7741,-2.7741,0,0,-2.7706,-2.7704,-2.7714,-2.7725,-2.7725,-2.7741,-2.7707,-2.7725,-2.7736,-2.7706,-2.773,-2.7728,-2.7729,-2.7761,-2.7775,-2.776,-2.7829,-2.7805,-2.781,-2.781,-2.7828,-2.7836,-2.7844,-2.7744,-2.7743,-2.7743,0,0,-2.7762,-2.7763,-2.7787,-2.7788,-2.779,-2.7781,-2.7788,-2.7784,-2.7781,-2.7805,-2.7783,-2.7797,-2.7818,-2.782,-2.7823,-2.7882,-2.7863,-2.7886,-2.7921,-2.794,-2.7947,-2.7953,-2.7973,-2.7981,-2.789,-2.7891,-2.7891,0,-2.7795,-2.7818,-2.7802,-2.7821,-2.7826,-2.7801,-2.7825,-2.7828,-2.7832,-2.7836,-2.782,-2.7847,-2.7846,-2.7878,-2.7892,-2.7897,-2.7902,-2.7885,-2.7948,-2.7954,-2.7959,-2.7978,-2.7985,-2.7893,-2.7893,-2.7893,-2.7892,0,-2.7857,-2.7874,-2.7893,-2.7899,-2.7907,-2.7929,-2.7916,-2.7926,-2.7914,-2.7908,-2.7933,-2.7932,-2.7941,-2.7948,-2.7937,-2.7979,-2.7969,-2.7951,-2.7921,-2.7971,-2.7988,-2.7995,-2.7897,-2.7896,-2.7895,-2.7895,0,0,-2.7937,-2.7934,-2.7942,-2.7944,-2.7944,-2.7956,-2.7978,-2.7988,-2.7996,-2.8001,-2.8018,-2.8037,-2.802,-2.8025,-2.8013,-2.803,-2.8076,-2.8009,-2.8009,-2.8021,-2.8121,-2.8133,-2.8142,-2.8064,-2.8066,-2.8067,-2.812,0,-2.799,-2.8026,-2.8013,-2.8049,-2.8064,-2.8041,-2.8059,-2.8062,-2.8057,-2.8069,-2.8063,-2.8077,-2.8054,-2.8056,-2.8072,-2.8067,-2.8095,-2.8063,-2.8079,-2.808,-2.8077,-2.8151,-2.8164,-2.8215,-2.8127,-2.8128,-2.8129,0,-2.8057,-2.8064,-2.8102,-2.8101,-2.8106,-2.8123,-2.8131,-2.8143,-2.8145,-2.8141,-2.8147,-2.8132,-2.8153,-2.8125,-2.8153,-2.8132,-2.8138,-2.8136,-2.8138,-2.8137,-2.8106,-2.8151,-2.8231,-2.8238,-2.814,-2.8139,-2.8138,0,-2.8109,-2.813,-2.8155,-2.8158,-2.8156,-2.8169,-2.8169,-2.817,-2.8177,-2.8184,-2.8188,-2.8198,-2.8203,-2.8212,-2.82,-2.8181,-2.823,-2.8201,-2.8226,-2.8226,-2.8235,-2.8234,-2.8315,-2.8242,-2.8242,-2.8242,-2.8242,0,-2.8169,-2.8193,-2.8178,-2.8194,-2.822,-2.8205,-2.8232,-2.8229,-2.8231,-2.8245,-2.8226,-2.824,-2.8225,-2.8238,-2.8229,-2.8253,-2.8256,-2.8253,-2.825,-2.8253,-2.8253,-2.8255,-2.8251,-2.8244,-2.8244,-2.8243,-2.8243,0,-2.8231,-2.8223,-2.8248,-2.8246,-2.8246,-2.8265,-2.8262,-2.8277,-2.8271,-2.829,-2.8293,-2.8285,-2.8299,-2.8289,-2.8303,-2.8297,-2.8328,-2.8322,-2.8327,-2.8325,-2.8349,-2.8347,-2.8433,-2.8443,-2.8365,-2.8366,-2.8367,0,-2.8269,-2.8287,-2.8286,-2.8295,-2.8296,-2.831,-2.8317,-2.8304,-2.8312,-2.8317,-2.8331,-2.8343,-2.8352,-2.8376,-2.8371,-2.8382,-2.8374,-2.8403,-2.8375,-2.8378,-2.8372,-2.8371,-2.8372,-2.8408,-2.8409,-2.841,-2.8411,0,-2.8337,-2.8332,-2.8343,-2.8353,-2.8362,-2.8369,-2.8374,-2.8382,-2.8369,-2.8379,-2.8394,-2.8401,-2.8416,-2.8428,-2.8437,-2.8437,-2.8422,-2.842,-2.8426,-2.8429,-2.8431,-2.8429,-2.8341,-2.8418,-2.8417,-2.8416,-2.8416,-2.8416,-2.8387,-2.8402,-2.8403,-2.8416,-2.8419,-2.8425,-2.8438,-2.8435,-2.8447,-2.8457,-2.8449,-2.8466,-2.8469,-2.8479,-2.8482,-2.8495,-2.8482,-2.8491,-2.8493,-2.8495,-2.8498,-2.8431,-2.8497,-2.8496,-2.8496,-2.8496,-2.8496,0,-2.8452,-2.8453,-2.8465,-2.8473,-2.8484,-2.847,-2.8475,-2.8484,-2.85,-2.8504,-2.8513,-2.853,-2.8542,-2.8539,-2.855,-2.8561,-2.8554,-2.8564,-2.8562,-2.8562,-2.8509,-2.8502,-2.8569,-2.8569,-2.8569,-2.8569,-2.8569,-2.8569,-2.8487,-2.8511,-2.8507,-2.8532,-2.8533,-2.8549,-2.8553,-2.8559,-2.8562,-2.8581,-2.8591,-2.8589,-2.859,-2.8601,-2.8612,-2.8611,-2.8615,-2.8627,-2.8623,-2.8573,-2.8566,-2.8559,-2.8552,-2.8629,-2.8629,-2.8675,-2.8675,-2.8676]},{"header":{"parameterUnit":"m.s-1","parameterCategory":1,"la1":30.2991,"la2":30.254,"lo1":-89.0895,"lo2":-89.0444,"dy":0.0017,"dx":0.0017,"nx":28,"ny":28,"refTime":"2025-11-20T09:00:00:Z","depth":0,"parameterNumber":3,"parameterNumberName":"V-component_of_WINDS"},"data":[0,0,0,0,0,0,0,0,0,0,0,0,0,0,0,0,0,0,0,0,0,0,0,0,0,0,0,0,0,0,0,0,0,0,0,0,0,0,0,0,0,0,0,0,0,0,0,0,0,0,0,0,0,0,0,0,0,0,2.3272,2.3273,0,2.3338,2.3339,2.3339,2.334,2.3339,2.3338,2.3337,2.3404,2.3406,2.3409,0,0,0,0,0,0,0,0,0,0,0,0,0,2.3148,2.315,2.3272,2.3273,2.3274,2.3338,2.3339,2.334,2.334,2.3339,2.3338,2.3337,2.3403,2.3406,2.3409,0,0,0,0,0,0,0,0,0,0,0,0,0,2.3207,2.3151,2.3272,2.3282,2.3283,2.3338,2.3339,2.334,2.334,2.3339,2.3338,2.3337,2.3402,2.3406,2.3409,2.3458,0,0,2.3421,2.3423,0,0,0,0,0,0,0,0,2.3203,2.3211,2.3279,2.3281,2.3283,2.3329,2.3319,2.338,2.3341,2.3319,2.3337,2.3336,2.338,2.3386,2.3401,2.3461,2.3464,2.3421,2.3424,2.3425,2.3426,0,0,0,0,0,0,0,2.3199,2.3208,2.3298,2.328,2.3282,2.3283,2.329,2.3331,2.3355,2.332,2.3321,2.3328,2.3381,2.3397,2.3402,2.3465,2.3421,2.3425,2.3427,2.3429,2.3574,2.3576,0,0,0,0,0,0,2.3193,2.3205,2.3296,2.33,2.3239,2.3287,2.3294,2.3316,2.3355,2.336,2.3329,2.3328,2.3391,2.3398,2.3404,2.3467,2.3425,2.3429,2.3431,2.3572,2.3574,2.3576,0,0,0,0,0,0,2.3191,2.3201,2.3293,2.3253,2.3264,2.329,2.3314,2.3318,2.3334,2.3362,2.3366,2.3341,2.339,2.3399,2.3446,2.347,2.3431,2.3434,2.3571,2.3573,2.3575,2.3592,0,0,0,0,0,0,2.3187,2.32,2.3218,2.3253,2.3267,2.3333,2.3315,2.332,2.3341,2.334,2.3374,2.3379,2.339,2.344,2.345,2.3474,2.3437,2.3569,2.3572,2.3574,2.3589,2.3594,2.3599,0,0,0,0,0,2.3183,2.3219,2.3219,2.323,2.329,2.3334,2.3342,2.3355,2.3342,2.3362,2.338,2.3378,2.3465,2.3445,2.3456,2.3482,2.3567,2.3571,2.3574,2.3587,2.3593,2.3599,0,0,0,0,0,0,2.3185,2.3224,2.3224,2.3273,2.3301,2.3334,2.3359,2.336,2.3391,2.3389,2.3403,2.3411,2.3458,2.3474,2.3451,2.3533,2.3515,2.3521,2.3521,2.3527,2.3532,2.3527,2.344,0,0,0,0,0,2.3192,2.3224,2.3256,2.3296,2.331,2.3332,2.3352,2.336,2.3389,2.34,2.3422,2.345,2.3485,2.3506,2.3539,2.3591,2.3601,2.3615,2.362,2.3623,2.3629,2.3661,2.3669,2.3588,2.3588,2.3588,0,0,2.3205,2.323,2.3249,2.3298,2.332,2.3355,2.3342,2.3378,2.3405,2.3405,2.3452,2.3469,2.3502,2.3553,2.3576,2.3568,2.3653,2.3628,2.3631,2.3634,2.3666,2.3674,2.368,2.359,2.359,2.3589,0,0,2.3247,2.3268,2.3306,2.333,2.3364,2.3379,2.3388,2.3423,2.3435,2.3482,2.3485,2.3516,2.3574,2.3599,2.3618,2.3675,2.3675,2.3685,2.371,2.3742,2.3749,2.3754,2.3777,2.3785,2.369,2.369,2.369,0,2.3259,2.3311,2.3325,2.3363,2.3385,2.3389,2.3429,2.3451,2.3494,2.351,2.35,2.3576,2.3597,2.3656,2.367,2.3685,2.3698,2.3681,2.3747,2.3752,2.3758,2.378,2.3789,2.3691,2.3691,2.3691,2.3691,0,2.3326,2.3363,2.3389,2.3433,2.3458,2.3496,2.3517,2.3541,2.3548,2.3564,2.3614,2.3641,2.3682,2.3696,2.3701,2.3757,2.3751,2.3743,2.3726,2.3767,2.3788,2.3796,2.3693,2.3693,2.3692,2.3692,0,0,2.337,2.3424,2.3433,2.3455,2.3495,2.3524,2.3564,2.3605,2.3627,2.3657,2.3692,2.3743,2.3739,2.3761,2.377,2.3798,2.3845,2.3788,2.3789,2.3799,2.3911,2.3918,2.3927,2.3845,2.3847,2.3848,2.391,0,2.3419,2.349,2.3505,2.3567,2.3603,2.3609,2.3644,2.3674,2.3691,2.3725,2.3743,2.3781,2.377,2.3784,2.3812,2.3833,2.3868,2.3829,2.388,2.3881,2.3873,2.3938,2.3944,2.4001,2.3918,2.3919,2.392,0,2.3484,2.3519,2.3585,2.3625,2.364,2.3671,2.3712,2.3743,2.3778,2.3789,2.3817,2.3823,2.3867,2.3847,2.3909,2.3882,2.3904,2.3918,2.3921,2.3927,2.3904,2.3948,2.4019,2.4028,2.3932,2.3931,2.3931,0,2.3513,2.3576,2.3625,2.3643,2.3689,2.3712,2.3732,2.3766,2.379,2.3826,2.3843,2.3882,2.3905,2.3936,2.3954,2.3937,2.4016,2.3996,2.4028,2.4028,2.4045,2.4044,2.4122,2.4056,2.4055,2.4055,2.4055,0,2.3567,2.3608,2.3639,2.3669,2.3716,2.3734,2.378,2.3801,2.3831,2.3867,2.3873,2.3907,2.3928,2.3965,2.3979,2.403,2.4039,2.4051,2.4054,2.4051,2.405,2.4067,2.4064,2.4058,2.4057,2.4057,2.4056,0,2.3607,2.363,2.3684,2.3725,2.3736,2.3769,2.3804,2.3835,2.3853,2.3898,2.391,2.3939,2.3983,2.4005,2.4058,2.4069,2.4127,2.4127,2.4116,2.4118,2.4149,2.4147,2.4243,2.4257,2.4179,2.418,2.418,0,2.3641,2.3673,2.3718,2.3743,2.3765,2.3804,2.383,2.385,2.3877,2.3921,2.3947,2.3992,2.4029,2.4099,2.4126,2.4168,2.417,2.4201,2.4177,2.4174,2.4174,2.4173,2.4178,2.4206,2.4206,2.4207,2.4208,0,2.3699,2.371,2.3747,2.379,2.3822,2.3856,2.389,2.391,2.3936,2.3966,2.4012,2.4041,2.4098,2.4143,2.4189,2.421,2.4215,2.4215,2.4225,2.4223,2.4217,2.4224,2.413,2.4213,2.4212,2.4212,2.4212,2.4212,2.3739,2.3769,2.3807,2.385,2.3878,2.3911,2.3943,2.3967,2.4005,2.4054,2.4063,2.4113,2.415,2.4212,2.4235,2.4276,2.4269,2.4282,2.4286,2.429,2.4293,2.4209,2.4283,2.4283,2.4283,2.4283,2.4283,0,2.38,2.3826,2.3865,2.3914,2.3948,2.3949,2.3988,2.4017,2.4061,2.4096,2.4133,2.4188,2.4233,2.4264,2.431,2.4337,2.434,2.4349,2.4348,2.4354,2.4295,2.4283,2.4345,2.4345,2.4345,2.4345,2.4345,2.4345,2.3836,2.3889,2.3904,2.3972,2.3997,2.4047,2.4069,2.41,2.4129,2.419,2.4228,2.4249,2.4283,2.4332,2.4375,2.4383,2.4401,2.441,2.4418,2.4363,2.4357,2.4351,2.434,2.4413,2.4413,2.4474,2.4474,2.4475]}]]